Location: Unspecified
(49.2170°N, 0.0000°E)
Time: 04:21:03
(UTC+00:00)

A-11 Canister half - Pass Details

Date: 21 June 2021
Orbit: 1513 x 1687 km, 47.2° (Epoch: 03 August)

Event Time Altitude Azimuth Distance (km) Brightness Sun altitude
Exits shadow 02:40:55 - 191° (S) 4,307 10.8 -9.2°
Reaches altitude 10° 02:42:26 10° 186° (S) 3,926 10.6 -9.0°
Maximum altitude 02:50:18 27° 134° (SE) 2,780 10.3 -8.2°
Drops below altitude 10° 02:58:00 10° 82° (E) 3,849 11.9 -7.4°
Sets 03:01:40 0° 71° (ENE) 4,811 12.8 -7.1°
